This is the latest recevied weather packets stored in our database for station/object AA8FM-13. If no packets are shown the sender has not sent any weather packets the latest 10 day(s).
| Time | Temp. | Humidity | Pressure | Rain* | Wind** | Luminosity | Snow |
|---|---|---|---|---|---|---|---|
| 1778165752 | 14.44° C | 51% | 1010.3 hPa | 0 mm | - | 621 W/m² | - |
| 1778165450 | 13.89° C | 53% | 1010.4 hPa | 0 mm | - | 578 W/m² | - |
| 1778165146 | 13.89° C | 59% | 1010.6 hPa | 0 mm | - | 558 W/m² | - |
| 1778164845 | 14.44° C | 57% | 1010.6 hPa | 0 mm | - | 542 W/m² | - |
| 1778164541 | 13.33° C | 61% | 1010.5 hPa | 0 mm | - | 524 W/m² | - |
| 1778164239 | 13.89° C | 61% | 1010.6 hPa | 0 mm | - | 509 W/m² | - |
| 1778163938 | 12.78° C | 63% | 1010.7 hPa | 0 mm | - | 508 W/m² | - |
| 1778163631 | 13.89° C | 61% | 1010.6 hPa | 0 mm | - | 489 W/m² | - |
| 1778163327 | 13.33° C | 61% | 1010.7 hPa | 0 mm | - | 488 W/m² | - |
| 1778163024 | 12.78° C | 62% | 1010.9 hPa | 0 mm | - | 485 W/m² | - |
| 1778162721 | 12.78° C | 65% | 1010.9 hPa | 0 mm | - | 453 W/m² | - |
| 1778162418 | 12.78° C | 60% | 1011.1 hPa | 0 mm | - | 432 W/m² | - |
| 1778162115 | 12.22° C | 65% | 1010.9 hPa | 0 mm | - | 423 W/m² | - |
| 1778161812 | 12.22° C | 66% | 1010.9 hPa | 0 mm | - | 408 W/m² | - |
| 1778161509 | 11.67° C | 71% | 1011 hPa | 0 mm | - | 394 W/m² | - |
| 1778161204 | 12.78° C | 72% | 1011.1 hPa | 0 mm | - | 381 W/m² | - |
| 1778160900 | 12.22° C | 73% | 1011.3 hPa | 0 mm | - | 369 W/m² | - |
| 1778160599 | 11.67° C | 75% | 1011.1 hPa | 0 mm | - | 355 W/m² | - |
| 1778160295 | 11.67° C | 75% | 1011.4 hPa | 0 mm | - | 341 W/m² | - |
| 1778159991 | 11.67° C | 76% | 1011.3 hPa | 0 mm | - | 328 W/m² | - |
| 1778159688 | 11.11° C | 78% | 1011.2 hPa | 0 mm | - | 262 W/m² | - |
| 1778159385 | 10.56° C | 81% | 1011.3 hPa | 0 mm | - | 142 W/m² | - |
| 1778159082 | 10° C | 82% | 1011.4 hPa | 0 mm | - | 125 W/m² | - |
| 1778158781 | 10° C | 83% | 1011.1 hPa | 0 mm | - | 58 W/m² | - |
| 1778158479 | 10° C | 82% | 1011.4 hPa | 0 mm | - | 71 W/m² | - |
* Rain latest hour (hover to see other rain measurements)
** Current wind speed in m/s (hover to see current wind gust speed)